GFSNW_prec_radar_048.txt.gz
Reflectivity
0 30 24 -7 -20 -20 -20 -20 -20 7 -20 -13 -20 -20 -20 -20 -20 -20 -20 -20 -20 -20 -20 -20 -20 -20 -20 -20 -20 -20 -20 -20 -20 -20 -20 -20 -20 -20 -20 -20 -20 -20 -20 -20
24 26 30 -15 -20 -10 -20 -20 -7 -19 -20 11 -20 -20 -20 -20 -20 -20 -20 -20 -20 -20 -20 -20 -20 -20 -20 -20 -20 -20 -20 -20 -20 -20 -20 -20 -20 -20 -20 -20 -20 -20 -20 -20
18 30 40 -1 -20 -20 -20 -2 -1 6 -11 -20 -20 -20 -20 -20 -20 -20 -20 -20 -20 -20 -20 -20 -20 -20 -20 -20 -20 -20 -20 -20 -20 -20 -20 -20 -20 -20 -20 -20 -20 -20 -20 -20
18 23 33 -18 4 -20 -20 -10 -8 -20 18 -20 -20 -20 -20 -20 -20 -20 -20 -20 -20 -20 -20 -20 -20 -20 -20 -20 -20 -20 -20 -20 -20 -20 -20 -20 -20 -20 -20 -20 -20 -20 -20 -20
31 24 21 17 -20 -20 -20 -20 -20 -20 -20 -20 -20 -20 -20 -20 -20 -20 -20 -20 -20 -20 -20 -20 -20 -20 -20 -20 -20 -20 -20 -20 -20 -20 -20 -20 -20 -20 -20 -20 -20 -20 -20 -20
38 36 27 2 5 -9 -20 7 -20 -20 -20 -20 -20 -20 -20 -20 -20 -20 -20 -20 -20 -20 -20 -20 -20 -20 -20 -20 -20 -20 -20 -20 -20 -20 -20 -20 -20 -20 -20 -20 -20 -20 -20 -20
35 21 18 8 7 -20 -20 -20 -20 -20 -20 -14 -20 -20 -20 -20 -20 -20 -20 -20 -20 -20 -20 -20 -20 -20 -20 -20 -20 -20 -20 -20 -20 -20 -20 -20 -20 -20 -20 -20 -20 -20 -20 -20
20 23 9 5 -14 -20 -20 -20 -20 -20 22 -19 -20 -20 -20 -20 -20 -1 -20 -20 -20 -20 -20 -20 -20 -20 -20 -20 -20 -20 -20 -20 -20 -15 -20 -20 -20 -20 -20 -20 -20 -20 -20 -20
17 12 -19 -20 -17 -20 17 -20 -18 -20 -20 -20 -18 -20 -20 -20 -20 -20 -20 -20 -20 -20 -20 -20 -20 -20 -20 -20 -20 -20 -20 -20 -20 -19 -17 -20 -20 -20 -20 -20 -20 -20 -20 -20
20 -1 -13 9 8 -20 5 -14 -20 -20 -20 -11 -15 -20 -20 -20 -20 -20 -20 -20 -20 -20 -19 26 9 -20 -20 -20 -20 -20 -6 -20 9 -14 8 -20 -20 -20 -20 -20 -20 -20 -20 -20
-20 -7 8 9 9 -20 21 -17 -20 -20 -20 -17 -20 -20 -20 -20 -20 -20 -20 -20 -20 -20 -6 21 -16 -5 -20 -20 -20 -20 -20 -20 -20 -19 16 -20 -20 -20 -6 -20 -20 -20 -20 -20
8 8 12 11 -15 -20 14 -12 17 -20 -20 -20 -20 -20 -20 -20 -20 -20 -20 -20 -20 -20 -18 14 -20 10 5 -20 -20 -20 -20 -19 -20 -20 -20 -20 -20 -20 -20 -20 -20 -20 -20 -20
-4 8 12 8 -20 -13 27 12 -13 -20 -20 -20 -20 -20 -20 -20 -20 -20 -20 -20 -20 -20 -20 -20 -20 23 -20 -20 -20 -20 -20 -20 -20 -20 -20 -20 -20 -20 -20 -20 -20 -20 -20 -20
-20 -8 1 -20 -20 -8 25 -13 -19 -20 5 21 -16 -20 -20 -20 -20 -20 -20 -20 -20 -20 -20 -20 -2 19 -20 -20 -20 -20 -20 -20 -20 -20 -20 -20 -20 -20 -20 -20 -20 -20 -20 -20
-20 -20 -20 -20 -20 -13 -1 -20 -9 -13 17 2 -6 -20 -20 -20 -20 -20 -20 -20 -20 -20 -0 15 -6 -20 -20 -20 -20 -20 -20 -20 -20 -20 -20 -20 -20 -20 -20 -20 -20 -20 -20 -20
-20 -20 -20 -20 -20 -20 -20 -20 -20 -20 36 0 3 -19 -20 -19 -20 -20 -20 -20 -20 -20 -20 -4 -20 -20 -20 4 -20 -20 -20 -20 -20 -20 -20 -20 -20 -20 -20 -20 -20 -20 -20 -20
-11 -20 -20 -20 -20 -9 -19 -16 9 31 12 7 20 24 12 -18 -18 -19 5 -20 -20 -20 -20 -14 -17 -20 -20 -4 -20 -20 -20 -20 -20 -20 -20 -20 -20 -20 -20 -20 -20 -20 -20 -18
-17 -17 5 13 2 2 -17 -13 19 1 5 6 20 4 1 -15 -14 14 -20 -20 -12 -20 -20 -20 -20 -20 -20 -17 -20 -20 -20 -20 -20 -20 -20 -20 -20 -20 -20 -20 -20 -6 8 10
-12 -10 -11 24 21 -1 -20 -2 1 7 -14 18 20 -10 14 -20 -20 -13 -20 -11 -11 -20 -1 -20 -20 -7 -14 -20 -20 -20 -20 -20 -20 -20 -20 -20 -20 -20 -20 -20 -10 -15 -18 -19
-20 -20 -20 -20 -20 -20 -19 2 -13 -20 -20 -20 -20 -20 -20 -20 -20 -16 -19 -20 -20 -20 -4 -20 -8 -20 -20 -20 -20 -20 -20 -20 -20 -20 -20 -10 0 -20 -20 -20 -20 -20 -20 -20
-15 -20 2 -13 1 6 -15 3 -1 -4 14 -16 -13 -20 -20 -20 -20 -6 -20 -20 -16 -2 -20 -14 -3 -20 -20 -20 -20 -20 -20 -20 -17 -20 -20 -17 -18 -20 -20 -20 -20 -20 -20 -20
12 3 14 8 -20 -1 -19 -13 -0 3 -19 -20 -10 -14 -8 -20 -20 -20 -11 -20 -5 -17 -20 -11 -20 -5 -18 -20 -6 -13 -13 -20 -20 -20 -20 -20 -20 -20 -20 -20 -20 -20 -20 -20
-20 -13 13 2 14 4 11 -20 -20 -20 -20 -7 5 8 -20 -20 -18 -1 11 -15 -16 -18 3 -20 -20 -20 -1 -1 -20 -20 -20 -20 -20 -20 -20 -20 -20 -20 -20 -20 -20 -20 -20 -20
-20 18 -20 16 14 -19 -15 -19 -4 -7 -5 -20 -20 -19 -20 -11 8 6 2 -13 -19 -0 3 -14 -20 1 -2 -8 -19 -20 -20 -20 -20 -20 -20 -20 -20 -20 -20 -20 -20 -20 -20 -20
32 26 21 23 -20 -4 -2 -11 -20 -20 -20 -20 -15 -9 -18 -20 -13 -20 -19 -6 -5 -10 -13 -17 -4 2 -6 -20 -20 -20 -20 -20 -20 -20 -20 -20 -20 -20 -20 -20 -20 -20 -20 -20
16 -2 -18 -14 -16 -5 -20 -20 -17 -20 -20 -20 -20 -20 -11 -20 -20 -20 -19 -6 -20 -1 -7 -7 16 5 -19 -20 -20 -20 -20 -20 -20 -20 -20 -20 -20 -20 -20 -20 -20 -20 -20 -20
-9 -19 -6 -11 -18 -20 -8 -14 -9 -15 -17 -19 -20 -20 -20 -11 -20 -20 -20 -5 -20 -16 -2 9 0 -17 -20 -20 -20 -20 -20 -20 -20 -20 -20 -20 -20 -20 -20 -20 -20 -20 -20 -20

GFSNW_prec_radar_054.txt.gz
Reflectivity
16 13 -19 -20 -9 -0 30 2 -20 -20 -20 -19 -20 -20 -20 -20 -20 -20 -20 -20 -20 -20 -20 -20 -20 -20 -20 -20 -20 -20 -20 -20 -20 -20 -20 -20 -20 -20 -20 -20 -20 -20 -20 -20
14 9 -7 -20 -20 5 25 0 -3 4 -6 -20 -20 -20 -20 -20 -20 -13 -20 -20 -20 -20 -20 -20 -20 -20 -20 -20 -20 -20 -20 -20 -20 -20 -20 -20 -20 -20 -20 -20 -20 -20 -20 -20
21 6 -7 -20 -16 17 26 11 6 18 24 -20 -20 -20 -20 -20 -20 -20 -20 -20 -20 -20 -20 -20 -20 -20 -20 -20 -20 -20 -20 -20 -20 -20 -20 -18 -20 -20 -20 -20 -20 -20 -20 -20
23 -2 -19 -20 -12 24 27 14 -20 -11 17 2 -20 -20 -20 -20 -20 -20 -20 -20 -20 -20 -20 -20 -20 -20 -20 -20 -20 -20 -20 -20 -20 -20 -20 -20 -20 -20 -20 -20 -20 -20 -20 -20
23 -19 -18 -20 8 32 30 13 -20 -5 3 -20 -20 -20 -20 -20 -20 -20 -20 -20 -20 -20 -20 -20 -20 -20 -20 -20 -20 -20 -20 -20 -20 -20 -20 -20 -20 -20 -20 -20 -20 -20 -20 -20
15 -6 -20 -20 1 35 28 -20 -20 -20 -20 -20 -20 -20 -20 -20 5 -20 -20 -20 -20 -20 -20 -9 -20 -20 -20 -20 -20 -20 -20 -20 -20 -20 -20 -20 -20 -20 -20 -20 -20 -20 -20 -20
8 -16 -16 -20 10 27 9 -20 14 17 -6 -20 -20 -20 -20 -20 -20 -20 7 -20 -20 -20 -20 -20 -20 -20 -20 -20 -20 -20 -20 -20 -20 -20 -20 -20 -20 -20 -20 -20 -20 -20 -20 -20
-20 -2 11 -20 5 28 6 -6 24 24 -18 -20 -20 -20 -20 -20 -20 -20 4 -20 -20 -16 -20 -20 -20 -20 -20 -20 -20 -20 -20 -20 -20 -20 -20 -20 -20 -20 -20 -20 -20 -20 -20 -20
-20 -20 -20 -20 21 28 17 -14 13 26 16 -20 -20 -20 -20 -20 -4 -19 34 -20 -19 -20 -20 -20 -20 -20 -20 -20 -20 -20 -20 -20 -20 -20 -20 -20 -20 -20 -20 -20 -20 -20 -20 -20
-20 -20 -20 -19 13 26 8 3 8 16 27 -20 -20 -20 -20 -20 -20 -8 -20 -20 -4 -20 -7 13 0 -20 -20 -20 -20 -20 -20 -20 -20 -20 -3 -20 -20 -20 -20 -20 -20 -20 -20 -20
-20 -13 -20 8 16 23 12 3 26 28 38 26 -20 -20 -20 -20 13 26 -20 -11 -20 3 -17 9 -16 -20 -20 -20 -20 -20 -20 -20 -20 -20 -9 -20 -20 -20 -20 -20 -20 -20 -20 -20
-20 -20 -20 16 29 14 10 4 31 -2 28 7 -20 -20 -20 -20 25 2 -20 -20 -20 -20 -20 0 1 -20 4 -20 -20 -20 -20 -20 -20 -20 -20 -20 -20 -20 -20 -20 -20 -20 -20 -20
-13 -20 -7 16 21 18 3 12 22 36 33 29 -15 -20 -20 -20 -15 24 -20 -20 -20 -20 -20 -20 -20 5 -20 -12 -20 -20 -20 -20 -20 -20 -20 -20 -20 -20 -20 -20 -20 -20 -20 -20
-16 0 -2 26 -1 -14 27 24 18 16 13 20 -19 -15 -20 -20 -20 -2 -12 -20 -20 -20 -20 -20 -17 1 -20 -20 -20 -20 -20 -20 -20 -20 -20 -20 -20 -20 -20 -20 -20 -20 -20 -20
11 12 15 -2 6 14 32 18 -2 38 24 5 -1 -20 -20 -20 -20 -20 -7 -20 -20 -20 -2 8 -12 -20 -20 -20 -20 -20 -20 -20 -20 -20 -20 -20 -20 -20 -20 -20 -20 -20 -20 -20
10 28 23 23 25 33 32 25 22 20 26 19 8 -20 -20 -20 -20 -19 11 -13 -20 -20 -20 -20 -20 -20 -20 -20 -20 -20 -20 -20 -20 -20 -20 -20 -20 -20 -20 -20 -20 -20 -20 -20
28 21 27 26 30 34 26 14 -20 -20 -2 -12 7 -10 -20 -20 -20 -20 -20 -11 -20 -20 -20 -20 -20 -20 -20 -20 -20 -20 -20 -20 -20 -20 -20 -20 -20 -20 -20 -20 -20 -20 -20 -20
22 22 27 30 23 31 16 23 -3 -17 -15 -4 15 6 -6 -20 -1 -20 -20 -19 -16 -14 -20 -20 -20 -20 -20 -20 -20 -20 -20 -20 -20 -20 -20 -20 -20 -20 -20 -20 -20 -20 -20 -20
25 13 10 19 27 22 28 13 24 12 0 12 15 4 -6 -20 -14 0 -8 -19 -15 -20 -14 -20 -20 -20 -15 -20 -20 -20 -20 -20 -20 -20 -20 -20 -20 -20 -20 -20 -20 -20 -20 -20
21 15 22 25 29 31 37 33 33 27 12 -20 7 28 31 -15 -6 2 20 -9 12 16 1 16 -8 -20 -20 -20 -20 -20 -20 -20 -20 -20 -20 -20 -20 -20 -20 -20 -20 -20 -20 -20
7 23 31 28 34 35 32 8 9 -11 1 -20 -20 22 26 -15 7 25 21 21 22 7 -20 -20 -17 -20 -20 -20 -20 -20 -20 -20 -20 -20 -20 -20 -20 -20 -20 -20 -20 -20 -20 -20
9 4 7 21 32 16 10 9 -1 -16 -19 -20 -12 -13 11 15 -3 29 31 7 7 -8 -13 -6 -20 -20 -20 -20 -20 -20 -20 -20 -20 -20 -20 -20 -20 -20 -20 -20 -20 -20 -20 -20
-16 -19 10 -2 13 8 -4 -20 -18 -18 -18 4 2 2 -4 8 9 7 11 -0 -3 -18 -20 -20 -19 -20 -8 -20 -20 -20 -20 -20 -20 -20 -20 -20 -20 -20 -20 -20 -20 -20 -20 -20
-2 13 -12 10 12 -20 -14 -20 -15 -15 3 -12 -20 -18 -9 -6 -16 3 -20 -3 -19 -3 0 -16 -20 -7 -18 -19 -20 -20 -20 -20 -20 -20 -20 -20 -20 -20 -20 -20 -20 -20 -20 -20
21 26 23 7 2 -16 -10 7 -3 2 -18 -20 -6 -6 -20 -11 -13 -15 -20 -14 -10 -19 -9 -6 -17 -20 -13 -17 -20 -20 -20 -20 -20 -20 -20 -20 -20 -20 -20 -20 -20 -20 -20 -20
8 -13 -8 -4 -7 3 5 6 2 -13 -14 -17 -18 -10 -20 -6 -6 -13 -16 -8 -15 -2 -13 -20 -20 -15 -18 -19 -20 -20 -20 -20 -20 -20 -20 -20 -20 -20 -20 -20 -20 -20 -20 -20
33 8 17 11 -11 1 2 -18 -20 -20 -20 2 -4 -20 -4 -20 -20 -20 -20 -14 -4 -20 -20 -16 -20 -16 -20 -20 -20 -20 -20 -20 -20 -20 -20 -20 -20 -20 -20 -20 -20 -20 -20 -20

GFSNW_prec_radar_057.txt.gz
Reflectivity
18 14 -2 23 -18 -20 11 17 15 -12 10 -18 -8 -4 -20 -20 -15 -20 -20 -20 -20 -20 -20 -20 -20 -20 -20 -20 -6 -20 -20 -20 -19 23 -20 -20 -20 -20 22 -20 -20 -20 -20 -20
24 14 24 21 -15 -20 9 21 12 -17 1 -13 -20 -20 -20 -19 -17 -20 -20 -20 -20 -20 -20 -20 -9 -20 -20 -20 -20 -20 -20 -20 -20 -20 3 -6 -20 -20 -20 -20 -20 -20 -20 -20
21 11 21 17 23 -11 17 14 24 24 7 -9 -20 -20 -20 -20 -20 -20 -20 -20 -20 -20 -20 -20 -20 3 -20 -20 -20 -20 -20 -20 -20 -20 -20 -20 -20 -20 -20 -20 -20 -20 -20 -20
16 13 30 20 11 10 19 18 12 -1 6 -2 -20 -20 -20 -20 -20 -20 -20 -20 -20 -20 -20 -20 -3 11 -20 -20 -20 -20 -20 -20 -20 -20 -20 -20 -20 -20 -20 -20 -20 -20 -20 -20
-20 25 30 23 6 11 24 20 2 11 8 6 -20 -20 -20 -20 -20 -20 -20 -20 -20 -20 -20 -20 -20 -20 -20 -20 -20 -20 -20 -20 -20 -20 -20 -20 -20 -20 -20 -20 -20 -20 -20 -20
-20 12 30 31 21 2 22 8 -20 3 -4 -13 -20 -20 -20 -17 -20 -20 -20 -20 -20 -20 -20 -20 -20 -20 -20 -20 -20 -20 -20 -20 -20 -20 -20 -20 -20 -20 -20 -20 -20 -20 -20 -20
-18 25 25 33 -18 -20 0 -2 -5 7 -5 7 -20 -20 -20 -17 -20 -20 -20 -20 -20 -20 -20 -20 -20 -20 -20 -20 -14 -20 -20 -20 -20 -20 -20 -20 -20 -20 -20 -20 -20 -20 -20 -20
-13 30 28 30 -20 -1 2 9 9 21 29 -20 -20 -20 -20 -20 -20 -20 5 -20 -20 -20 -20 -8 14 -12 19 -16 21 -20 -20 -20 -20 -20 -20 -20 -20 -20 -20 -20 -20 -20 -20 -20
9 34 25 15 14 2 19 2 13 28 -18 8 -20 -20 -20 -20 -20 -20 14 -20 -20 -17 -20 -20 18 -17 -20 -20 -20 -20 -20 -20 -20 -20 -20 -20 -20 -20 -20 -20 -20 -20 -20 -20
30 28 21 20 11 18 21 24 22 28 25 5 -20 -20 -20 -20 -20 -5 -2 25 11 26 -17 -11 8 -19 -20 -20 -20 -20 -20 -20 -20 -20 -20 -20 -20 -20 -20 -20 -20 -20 -20 -20
27 20 19 3 -17 15 21 26 28 23 11 -20 -20 -20 -20 -19 -20 -20 -20 -20 -20 18 24 5 -19 -20 -20 -20 -20 -20 -20 -20 -20 -20 -20 -20 -20 -20 -20 -20 -20 -20 -20 -20
-10 -20 0 -18 -20 18 7 29 23 16 28 10 -20 -20 -20 -20 -20 -20 -20 -20 -2 3 16 3 -20 -20 -3 -20 -20 -20 -20 -20 -20 -20 -20 -20 -20 -20 -20 -20 -20 -20 -20 -20
-20 -20 -20 -20 -20 7 -4 14 15 16 21 18 3 5 -20 -20 -20 -18 -20 -20 -19 -20 -20 -20 -20 -20 -20 -20 -20 -20 -20 -20 -20 -20 -20 -20 -20 -20 -20 -20 -20 -20 -20 -20
-20 -11 -20 -20 -1 13 -5 27 18 21 19 14 30 28 -13 8 -20 -5 -20 -12 22 7 -20 -20 -20 -20 -20 -20 -20 -20 -20 -20 -20 -20 -20 -20 -20 -20 -20 -20 -20 -20 -20 -20
-20 -17 -20 -20 12 4 24 32 17 36 41 21 33 -3 -8 -20 23 -20 -20 23 38 15 -9 -14 -20 -20 -20 -20 -20 -20 -20 -20 -20 -20 -20 -20 -20 -20 -20 -20 -20 -20 -20 -20
-20 -20 -20 -3 11 14 37 39 24 23 19 40 24 34 20 -20 -19 20 -20 -14 39 32 5 -6 2 -20 -20 -20 -20 -20 -20 -20 -20 -20 -20 -20 -20 -20 -20 -20 -20 -20 -20 -20
-20 -20 4 14 11 18 26 28 40 35 22 15 2 -12 -19 -18 5 20 21 20 11 18 12 -19 -20 -20 4 -16 -20 -20 -20 -20 -20 -20 -20 -20 -20 -20 -20 -20 -20 -20 -20 -20
-5 11 18 11 31 35 15 19 20 5 31 32 9 -9 -20 -15 -20 -20 -20 -6 10 0 11 11 16 -20 -14 -6 -20 -20 -20 -20 -20 -20 -20 -20 -20 -20 -20 -20 -20 -20 -20 -20
24 20 31 29 23 38 40 44 20 1 29 11 0 -4 -20 -20 -20 -16 -20 4 1 -0 -17 -20 4 -10 -20 -20 -20 -20 -20 -20 -20 -20 -20 -20 -20 -20 -20 -20 -20 -20 -20 -20
29 29 21 17 39 39 36 28 -18 -20 -20 -20 -20 -20 -20 -20 -20 -20 -20 -1 -20 -20 -20 -20 -20 -20 -20 -20 -19 4 -20 -20 -20 -20 -20 -20 -20 -20 -20 -20 -20 -20 -20 -20
27 30 39 43 28 27 -2 -20 -20 -20 -20 -20 -20 -20 -20 -10 -6 1 -20 -12 -13 2 -20 -2 -2 5 5 10 15 -20 -20 -20 -20 -20 -20 -20 -20 -20 -20 -20 -20 -20 -20 -20
37 25 18 15 27 28 -16 3 0 -14 -20 -20 -20 -20 -20 10 20 12 -1 -1 -20 -20 -20 -11 -14 11 -5 -4 -16 -20 -20 -20 -20 -19 -19 -20 -20 -20 -20 -20 -20 -20 -20 -20
-18 -12 7 30 10 20 21 -6 -20 -18 -20 -20 -15 -20 -8 36 22 24 0 -14 -20 -20 -20 -20 -18 -20 -20 -20 -20 -20 -20 -20 -15 -20 -20 -20 -20 -20 -20 -20 -20 -20 -20 -20
2 22 3 16 26 14 -13 -20 -20 -5 -15 -20 -18 8 6 22 17 12 12 9 -2 5 14 15 12 11 13 -10 -20 -20 -20 -20 -20 -20 -20 -20 -20 -20 -20 -20 -20 -20 -20 -20
-20 -11 3 15 6 -6 -13 -4 -15 -13 -20 -20 -20 -20 -20 2 -20 -10 -16 -8 -8 -20 10 16 20 4 -15 -13 -20 -20 -20 -20 -20 -20 -20 -20 -20 -20 -20 -20 -20 -20 -20 -20
-20 -19 -20 -20 -20 -18 -20 -20 -20 -20 -20 -20 -20 -20 -20 -20 -20 -20 -20 -19 -19 -2 -10 -20 -20 -12 -15 -20 -20 -20 -20 -20 -20 -20 -20 -20 -20 -20 -20 -20 -20 -20 -20 -20
-13 -5 2 3 -12 -8 -20 -17 -20 -20 -18 -12 -16 -20 -20 -20 -20 -20 -20 -15 -20 -20 -20 -17 -20 -12 -20 -18 -20 -19 -14 -20 -20 -20 -20 -20 -20 -20 -20 -20 -20 -20 -20 -20

GFSNW_prec_radar_063.txt.gz
Reflectivity
-20 -20 -11 16 4 22 24 18 8 -5 -20 18 23 -16 -20 -20 10 2 -20 -20 -20 -20 -20 -20 -20 -20 -20 -20 -20 -20 -20 -20 -20 -20 -20 -20 -20 -20 -20 -20 -20 -20 -20 -20
-20 -20 -19 28 -14 22 18 26 7 -8 -20 6 1 -9 -20 -20 10 7 -20 -20 -20 -20 -20 -20 -20 -20 -20 -20 -20 -20 -20 -20 -20 -20 -20 -20 -20 -20 -20 -20 -20 -20 -20 -20
3 -10 -20 -11 -19 21 29 26 15 22 17 -20 -11 -20 -20 -20 -13 9 -16 -20 -20 -20 -20 -20 -20 -20 -20 -20 -20 -20 -20 -20 -20 -20 -20 -18 -20 -12 -20 -20 -20 -20 -20 -20
4 5 -20 -19 -20 6 35 27 4 3 15 2 5 -20 -20 -20 -19 -3 -20 -20 -20 -20 -20 -20 -20 -20 -20 -20 -20 -20 -20 -20 -20 -20 -20 -20 -20 -20 -20 -20 -20 -20 -20 -20
6 7 -20 -20 -20 8 31 30 18 12 -20 2 7 -3 -20 -20 -20 -15 -20 -20 -20 -20 -20 -20 -20 -20 -20 -20 -20 -20 -20 -20 -20 -20 -20 -20 -20 -20 -20 -20 -20 -20 -20 -20
5 10 -20 -20 -20 17 33 35 -14 -3 5 -10 1 -20 -20 -20 -20 -20 -19 -20 -5 -20 -19 -2 -20 -20 -20 -20 -20 -20 -20 -20 -20 -20 -20 -20 -20 -20 -20 -20 -20 -20 -20 -20
7 0 -20 -20 -20 10 37 27 -14 14 -11 -5 -20 -16 -20 -20 -20 -20 -4 -16 -15 -20 4 0 -20 -20 -20 -20 -20 -20 -20 -20 -20 -20 -20 -20 -20 -20 -20 -20 -20 -20 -20 -20
13 -20 -20 -20 -20 18 36 -2 -11 19 7 -20 4 -20 -20 -20 -20 -19 10 -0 -20 5 12 -13 -19 -20 -20 -20 -20 -20 -20 -20 -20 -20 -20 -20 -20 -20 -20 -20 -20 -20 -20 -20
6 -20 -20 -20 -15 27 29 33 -20 29 25 -9 -9 1 -20 -20 -20 -20 4 -3 -20 -8 -4 -6 19 -20 -20 -20 -20 -20 -20 -20 -20 -20 -20 -20 -20 -20 -20 -20 -20 -20 -20 -20
-1 -17 1 -3 -5 29 31 31 -20 26 22 16 -14 -3 -20 -20 -20 -19 -19 -16 -20 -18 -20 18 -6 -20 -20 -20 -20 -20 -20 -20 -20 -20 -20 -20 -20 -20 -20 -20 -20 -20 -20 -20
-11 5 -20 -20 -18 31 29 23 18 16 25 1 -20 -17 -20 -20 -17 1 -18 -16 -20 -20 -20 4 -6 -20 -20 -20 -20 -20 -20 -20 -20 -20 -20 -20 -20 -20 -20 -20 -20 -20 -20 -20
5 15 9 8 -9 27 28 17 28 24 35 -15 -2 -20 -20 -20 -20 -2 -10 -20 -20 -20 20 2 21 -20 -20 -20 -20 -20 -20 -20 -20 -20 -20 -20 -20 -20 -20 -20 -20 -20 -20 -20
15 16 3 -20 -20 8 14 15 5 33 24 -20 -7 -20 -20 -20 -20 -20 -20 -20 -20 -20 -0 4 7 -3 -17 -19 -20 -18 -20 -20 -20 -20 -20 -20 -20 -20 -20 -20 -20 -20 -20 -20
-6 -20 -20 -20 -14 19 30 26 3 -7 31 17 -20 6 18 -20 -20 -20 -20 -20 -20 -20 24 23 11 -20 -20 -20 -14 24 -16 -20 -20 -20 -20 -20 -20 -20 -20 -20 -20 -20 -20 -20
-20 -20 -9 -20 -14 32 40 5 -1 6 11 34 20 -8 9 14 -13 -20 -20 -20 -20 -20 24 -3 16 -1 -20 -17 -20 -13 -7 -20 -20 -20 -20 -20 -20 -20 -20 -20 -20 -20 -20 -20
-20 -20 17 13 40 38 -6 9 17 3 -20 32 8 -19 -4 26 28 22 -20 -20 -20 -19 20 24 16 -18 -20 -20 -20 -20 -20 -20 -20 -20 -20 -20 -20 -20 -20 -20 -20 -20 -20 -20
15 22 33 39 12 -20 -20 -4 -11 0 29 40 11 -20 -20 -17 28 24 13 20 19 18 9 9 6 -13 -8 -20 -20 -20 -20 -20 -20 -20 -20 -20 -20 -20 -20 -20 -20 -20 -20 -20
30 33 19 -4 -3 -8 -12 8 -20 -16 24 24 8 2 9 -1 17 27 -19 17 19 22 9 -14 28 31 9 -19 -20 -19 -3 -3 -20 -20 -20 -20 -20 -20 -20 -20 -20 -20 -20 -20
-14 3 -19 -10 12 -6 -20 9 -7 -3 8 -4 -20 -4 6 -1 5 16 -10 4 -20 21 35 29 27 9 -18 -18 11 25 18 12 9 -0 20 6 -20 -20 -20 -20 -20 -20 -20 -20
-20 -20 -20 23 29 -2 29 37 40 40 30 20 -5 18 34 33 -5 11 7 -1 26 24 -16 2 -20 -20 -20 -15 2 27 22 15 9 -6 1 -2 1 -19 -20 -20 -20 -20 -20 -20
-20 -11 30 15 34 9 -1 26 28 30 27 7 6 21 32 28 22 8 4 -15 -20 -20 -20 -20 -20 -20 -20 -20 -20 -9 -4 -8 -6 4 -5 -17 -20 -10 13 -20 -20 -20 -20 -20
25 32 26 28 28 32 32 16 28 17 -3 21 24 2 13 29 24 -2 -5 -4 -20 -20 -20 -20 -20 -20 -20 -20 -20 -20 -20 -20 -20 -19 -20 -12 -5 32 2 -20 -20 -20 -20 -20
34 25 24 12 33 23 11 22 24 -0 -20 -17 -20 -20 -20 -20 -20 -20 -19 -20 -20 -20 -1 -20 -20 -20 -20 -20 -20 -20 -20 -20 -20 -20 -8 28 22 -18 -19 -20 -20 -20 -20 -20
24 11 -4 24 4 11 16 14 15 16 10 2 -2 -10 -20 -20 -20 -17 -20 -12 -18 0 -20 -20 -20 -20 -20 -20 -20 -20 -20 -16 21 33 29 -5 -19 -20 -20 -15 -17 -20 -20 -7
5 13 16 24 18 15 -9 -1 -18 -20 -20 -20 -20 -20 -20 -20 -20 -20 -20 -20 -16 -8 -20 -20 -20 -20 -20 -20 -14 16 27 25 14 9 9 5 -10 -17 -20 -20 -17 -6 -16 -20
32 28 25 18 5 12 7 11 -9 -14 -20 -20 -20 -20 -20 -20 -20 -20 -20 -20 -14 -6 -12 -1 -20 -20 -20 -20 -15 -18 -18 -19 -20 -15 3 7 -13 -20 -15 -6 -18 -20 -20 -20
7 11 6 3 -4 -1 -6 -5 -5 -1 -2 -20 -20 -20 -4 -20 -20 -18 -20 -20 -20 -19 -18 -20 -19 -20 -20 -20 -10 9 13 12 14 9 -9 -5 -5 -11 -16 -20 -20 -20 -20 -20

GFSNW_prec_radar_069.txt.gz
Reflectivity
16 18 19 11 12 -9 13 18 24 8 -20 8 6 0 -20 -20 -20 -20 -20 -20 -20 -20 -20 -20 -20 -20 -20 -20 -20 -20 -20 -20 -20 -20 -20 -20 -20 -20 -20 -20 -20 -20 -20 -20
18 18 21 13 15 8 -20 23 24 7 -19 11 5 -16 -1 -20 -20 -20 -20 -20 -20 -16 -20 -20 -20 -20 -20 -20 -20 -20 -20 -20 -20 -20 -20 -20 -20 -20 -20 -20 -20 -20 -20 -20
16 23 23 18 22 5 -12 23 22 29 22 -20 -20 1 -10 -3 -20 -20 -20 -20 -20 -16 -15 -20 -20 -20 -20 -20 -20 -20 -20 -20 -20 -20 -20 -20 -20 -20 -20 -20 -20 -20 -20 -20
19 25 32 27 25 8 -14 23 14 20 13 -14 -20 -20 -20 -20 -2 -20 -20 -20 -20 -20 -20 -20 -20 -15 -15 -20 -20 -20 -20 -20 -20 -20 -20 -20 -20 -20 -20 -20 -20 -20 -20 -20
29 29 32 30 27 15 17 30 2 -20 11 -17 4 4 2 -20 -13 -20 -20 -20 -20 -20 -20 -14 -4 -4 -20 -18 -20 -20 -20 -20 -20 -20 -20 -20 -20 -20 -20 -20 -20 -20 -20 -20
27 30 34 26 28 14 29 1 -20 -20 -18 0 -6 -20 -20 -20 -20 -20 -20 -20 -2 -7 -9 15 5 -9 -20 -20 -20 -20 -20 -20 -20 -20 -20 -20 -20 -20 -20 -20 -20 -20 -20 -20
36 31 35 28 25 -8 5 -4 -20 -2 -5 18 -7 -20 -4 -20 -20 -20 -20 -20 -20 -5 9 17 9 -20 -20 -20 -20 -20 -20 -20 -20 -20 -20 -20 -19 -20 -20 -20 -20 -20 -20 -20
27 33 34 26 26 -16 -17 -11 -20 -9 9 5 -7 -12 -20 12 3 -20 -20 -20 -12 14 6 -1 20 -5 -20 -20 -20 -20 -20 -20 -20 -20 -20 -20 -16 -20 -20 -20 -20 -20 -20 -20
26 34 32 24 29 4 -20 -20 -20 -20 10 12 -7 10 -19 -13 10 -20 -20 -20 -20 3 3 -10 -20 24 -10 -19 -20 -20 -20 -20 -20 -20 -20 -20 -20 -20 -20 -20 -20 -20 -20 -20
37 32 26 27 29 -6 -20 -20 -20 -12 17 -20 -8 20 -8 -20 8 -20 -20 -20 -20 -9 -16 -20 -20 -20 -3 18 -16 -20 -20 -20 -20 -20 -20 -20 -20 -20 -20 -20 -20 -20 -20 -20
34 31 20 31 24 1 -20 -20 -1 -20 27 -20 7 1 22 -13 -3 -20 -20 -20 -20 -8 -13 -20 -20 -20 -20 -20 4 -20 -20 -7 -19 -20 -20 -20 -17 -20 -20 -20 -20 -20 -20 -20
30 24 30 33 13 6 -9 -20 -20 -20 4 4 38 22 6 -20 -20 -20 -20 -20 -20 -20 -20 -20 -20 -20 -20 -20 -18 6 -19 -13 -8 -19 -20 -20 -20 -20 -20 -20 -20 -20 -20 -20
28 29 31 29 11 11 0 -14 -0 -19 -3 -5 19 31 6 -20 -20 -20 -20 -20 -20 -20 -20 -20 -20 -20 -20 -20 -20 -20 -13 12 -11 -20 -20 -20 -20 -20 -20 -20 -20 -20 -20 -20
28 32 30 20 7 14 -17 4 -20 -8 13 13 -1 30 24 -5 -20 -20 -20 -20 -20 -20 -20 -20 -20 -20 -20 -20 -20 -20 -20 -20 -20 -20 -14 -20 -0 1 -20 -20 -20 -20 -20 -20
31 28 28 26 22 13 -7 -14 -20 -20 25 28 24 28 24 27 -20 -20 -20 -20 -20 -20 -20 2 -20 -20 -20 -20 -20 -20 -20 -20 -1 -20 -20 -17 -14 19 15 -20 -20 -20 -20 -20
24 20 27 28 27 21 -16 24 18 -12 33 30 34 28 3 25 13 24 -20 -20 -20 -20 -20 -20 -20 -20 -20 -20 -20 -20 -20 -20 -20 -20 -20 -9 -20 -20 -20 -20 -20 -20 -20 -20
26 27 16 2 5 13 15 21 -14 4 30 31 34 18 -11 28 4 25 -20 -20 -20 -20 -20 -20 -20 -20 -20 -20 -20 -20 -20 -19 -20 -10 -2 -17 -19 -20 -20 -20 -20 -20 -20 -20
-12 -10 13 3 5 21 25 -2 -3 -1 16 27 29 34 19 27 13 8 -1 -20 -20 -20 -20 -20 -20 -20 -20 -20 -20 -20 -2 -2 -2 -18 -15 -4 -3 -20 -19 -20 -20 -20 -20 -20
-20 -20 -3 20 17 -4 13 0 -0 13 14 27 9 9 26 37 30 -1 -20 -4 11 -20 -20 -20 -20 -20 -20 -20 -20 -20 -1 6 1 17 -8 -20 -20 -6 -20 -20 -20 -20 -20 -20
-20 -5 32 19 0 25 23 28 31 29 17 -9 20 15 26 24 42 31 32 19 4 7 5 -20 -20 -20 -20 -20 -20 -19 -15 -20 5 -20 -20 -20 -20 -20 -13 -18 -20 -4 5 28
35 31 30 -8 21 -10 11 27 33 33 27 26 13 9 34 -0 20 14 23 33 34 28 -9 6 -20 -20 -20 -20 -20 -20 -20 -20 -20 -12 -4 -20 -20 7 7 18 21 14 27 15
14 2 17 19 -3 3 15 25 8 -8 -18 -20 -16 -6 8 -14 -8 14 13 16 37 24 -20 -20 -20 -20 -12 9 -5 13 -20 -20 -20 -20 -20 -20 -20 -20 -20 -18 12 6 7 17
-19 17 30 20 -16 -8 -8 -14 -17 -19 -20 -3 -20 1 -20 -20 -20 -20 17 5 19 -6 -20 -5 -20 -8 13 8 4 -18 -20 -20 -20 -20 -20 -20 -20 -20 -17 -14 1 19 19 16
-19 2 -6 -20 -7 25 -17 -20 -20 -20 -7 -3 -20 -20 -20 -9 -16 10 31 27 25 -4 -15 15 11 -2 9 -19 -20 -20 -20 -20 -20 -20 -20 -17 -20 -20 4 16 18 22 24 19
30 19 -20 -13 4 3 -7 -9 -20 -20 -10 -4 4 4 -10 9 26 22 18 15 2 8 -14 -17 -6 3 5 -0 3 1 -1 1 9 3 8 9 1 -1 11 16 19 17 16 17
13 14 24 6 -3 -20 -19 -14 1 11 26 23 20 7 14 21 9 -1 -20 -17 -18 -12 11 2 5 8 6 3 12 11 9 11 13 13 7 4 3 8 10 6 9 13 10 9
10 17 10 -6 9 18 19 20 15 29 30 11 17 19 6 11 -1 -20 -20 -18 -3 5 5 5 6 4 4 5 1 4 8 9 9 -3 -5 -7 -1 4 7 5 3 -12 -20 -7

GFSNW_prec_radar_072.txt.gz
Reflectivity
17 18 14 8 18 17 31 14 20 -10 16 7 27 11 -20 -20 -20 -20 -20 -20 -15 -4 9 -20 -20 -20 -18 -17 -20 -20 -20 -20 -20 -20 -20 -20 -20 -20 -20 -20 -20 -20 -20 -20
15 16 -8 23 24 18 31 22 17 15 12 8 18 -1 -20 -20 -20 -20 -20 -20 3 -13 4 -20 -20 -8 7 -9 -20 -20 -20 -20 -20 -20 -20 -20 -20 -20 -20 -20 -20 -20 -17 -20
17 16 13 24 28 27 24 14 19 20 22 -20 -18 10 2 -20 -20 -20 -20 -20 -5 -4 13 -8 -6 -20 12 -7 -20 -20 -20 -20 -20 -20 -20 -20 -20 -20 -20 -20 -20 -20 -20 -20
20 24 21 27 30 34 24 20 11 -20 13 6 3 -4 -20 -20 -16 -20 -20 -20 -20 -20 -11 10 1 7 12 -1 -20 -20 -20 -20 -20 -20 -20 -20 -20 -20 -20 -20 -20 -20 -20 -20
26 29 27 29 33 34 20 13 18 4 -20 -15 3 9 5 -20 -20 -20 -20 -20 -20 -20 -20 2 7 1 -7 -12 -20 -20 -20 -20 -20 -20 -20 -20 -20 -20 -20 -20 -20 -20 -20 -20
28 27 28 35 34 36 35 9 -20 -15 -20 10 11 4 -11 5 -20 -20 -20 -20 -20 -20 -12 12 13 -4 4 -20 -20 -20 -20 -20 -20 -20 -20 -20 -20 -20 -20 -20 -20 -20 -20 -20
28 30 30 34 35 33 25 16 -15 15 -6 14 -5 -13 -20 -20 -20 -20 -20 -20 -20 -20 -1 13 21 -6 12 -20 -20 -20 -20 -20 -20 -20 -20 -16 -11 -18 -20 -20 -20 -20 -20 -20
-4 29 35 34 35 27 16 2 -5 -20 8 -18 -20 2 2 -20 -20 2 -20 -20 -20 -20 2 13 3 27 -12 -13 -20 -20 -20 -20 -20 -20 -20 -20 -17 -16 -20 -20 -20 -20 -20 -20
-13 13 30 34 35 23 25 1 -20 -19 3 -20 -20 7 -4 -14 1 19 10 -19 -20 -20 -17 1 -20 -20 14 -20 -20 -20 -20 -20 -20 -20 -20 -20 -7 -16 -20 -20 -11 -20 -20 -20
-0 -16 25 35 31 23 30 6 -20 -7 3 -17 -20 -3 20 -0 -10 -2 15 14 -16 -20 -20 -6 -20 -20 -18 8 -19 -20 -20 -20 -20 -20 -6 -20 -20 -20 -14 -20 -18 -20 -20 -20
7 5 18 32 25 23 31 -2 -20 -20 -1 13 18 7 22 20 16 14 -19 23 -20 -20 -19 4 -17 -20 -20 -20 -15 -15 -20 -20 -12 -19 15 -20 -14 -14 -16 -20 -20 -20 -20 -20
4 -20 17 33 22 27 23 7 -20 -20 5 15 -20 -20 15 32 3 14 22 -20 -20 -20 -20 -3 -20 -19 -20 -20 -20 -17 -20 -20 -17 -20 -20 -20 -20 -20 -20 -20 -20 -20 -20 -20
-18 4 14 24 28 28 27 12 -14 -6 10 15 -16 -20 -18 24 22 -20 21 -20 -20 -20 -20 -20 -20 -11 -20 -20 -20 -4 -11 7 -1 -19 -20 -20 -20 -20 -20 -20 -20 -20 -20 -20
-15 9 20 31 28 29 31 -2 -11 -20 -2 13 -20 -20 -17 -20 33 -7 -19 -20 -20 -20 -20 -20 -20 -19 -20 -20 -20 -16 -20 -20 -20 -20 -20 2 -14 -20 -20 -20 -20 -20 -20 -20
13 24 30 31 32 36 15 -8 -20 -20 -20 -4 -20 -16 1 -5 -15 -10 -20 -8 -3 -16 -20 9 -20 -20 -20 -20 -20 -20 -20 -20 -20 -20 -20 -16 -5 -15 -20 -20 -20 -20 -20 -20
27 29 32 32 35 22 15 21 -16 3 6 -13 26 19 -2 32 -11 -0 -20 -20 -6 -13 -19 -20 -20 -20 -20 -20 -20 -20 -20 -20 -20 -20 -20 -20 -20 -20 -20 -20 -20 -20 -20 -20
27 30 32 31 21 -6 -20 -20 -5 -20 -20 -16 9 13 25 9 7 25 -8 -20 -20 8 19 -3 -2 -14 -19 -20 -20 -20 -20 -20 -20 -20 -20 -20 -20 -20 -11 -20 -20 -20 -20 -20
31 31 22 10 12 15 8 22 -15 -20 -19 6 1 12 39 31 37 31 24 20 23 -14 -3 -20 -20 -20 -20 10 -20 -20 -20 -20 -20 -20 -20 -20 -20 -20 -20 -20 -12 -20 -20 -20
20 25 30 29 23 -10 10 5 -3 -6 5 21 18 -1 32 43 13 20 8 1 9 -17 -14 -17 10 -20 -13 0 -20 -20 -20 -20 -20 -20 -20 -20 -20 -20 -20 -20 -20 -20 -20 -20
6 -3 1 12 8 -18 32 32 26 28 20 5 22 27 35 33 40 29 20 -3 -3 9 4 -19 -5 14 2 -20 -20 -20 -20 -20 -20 -20 -20 -20 -20 -20 -20 -20 -20 -20 -20 -20
-20 -2 2 13 17 32 15 18 7 11 6 10 19 33 41 34 36 30 21 -11 21 17 3 -7 -16 -12 -9 -20 -20 -20 -20 -20 -20 -20 -20 -20 -20 -13 -20 -20 -17 1 10 20
-5 -17 16 33 8 2 -20 -10 18 14 3 7 5 26 35 43 40 26 11 31 18 14 -9 -1 -3 -20 -20 -20 -20 -20 -20 -20 -20 -20 -20 -20 -20 -20 -20 -20 -12 -9 -16 -12
27 -18 14 16 -20 -10 -6 13 -9 1 -20 11 29 27 20 5 32 33 32 31 29 30 26 8 -13 1 -3 -20 -20 -20 -20 -20 -20 -20 -20 -20 -20 -20 -20 -20 -8 7 14 9
18 4 -9 8 -19 -9 0 3 -9 4 25 12 13 4 -0 -5 -10 -0 -0 21 23 31 26 -2 9 15 10 5 -19 -20 -20 -20 -20 -20 -20 -20 -15 -9 -3 4 -0 -12 -5 11
13 4 -6 -20 -14 20 29 -6 -20 -17 -20 -18 2 -17 -19 -17 -8 9 26 30 19 18 10 6 -4 3 0 0 -1 -7 -6 -15 -10 -17 -18 -13 -12 -15 3 10 13 6 -2 5
-6 -20 -10 -12 17 22 17 -0 -14 -14 -17 -11 -9 -1 20 15 12 17 3 -18 1 -15 -1 0 -2 1 0 1 0 -2 -3 -0 3 9 8 0 -15 -13 1 6 -1 5 7 -0
12 4 10 3 2 -9 -3 1 12 21 19 14 15 13 1 9 10 14 -20 -16 -11 -3 -3 -8 -5 6 11 15 13 11 10 7 3 -13 -16 -18 -18 -20 -20 -18 -7 -19 -19 -8

GFSNW_prec_radar_075.txt.gz
Reflectivity
15 13 11 8 10 24 28 31 31 12 3 17 12 4 -19 -20 -20 -20 -20 -20 -20 -20 -20 -20 13 11 8 9 1 -18 -20 -20 -20 -20 -20 -20 -20 -7 -20 -20 -20 -20 -20 -20
14 12 13 12 -1 26 29 35 19 21 -13 11 7 -20 -20 -20 -20 -20 -20 -20 -20 -20 -20 -17 5 15 20 2 -7 -20 -20 -20 -20 -20 -20 -20 -20 -20 -17 -20 -20 -20 -2 -12
19 19 15 24 14 27 30 35 21 23 22 -20 -20 -20 -20 -9 -20 -20 -20 -17 -20 -20 -20 12 7 26 14 -6 -20 -20 -20 -20 -20 -20 -20 -20 -20 -20 -20 -20 -20 -20 -20 -20
1 21 20 24 28 32 33 35 0 -12 3 8 -20 -20 -20 -20 -20 -20 -20 -20 -20 -20 -20 11 11 12 15 4 -20 -20 -20 -20 -20 -20 -20 -20 -20 -20 -20 -20 -20 -20 -20 -20
-12 20 20 24 33 36 36 34 -3 2 -20 -4 4 -3 3 -20 -20 -20 -20 -20 -20 -20 -20 -11 13 1 7 12 -4 -20 -20 -20 -20 -20 -20 -20 -20 -20 -20 -20 -20 -20 -20 -20
5 -17 26 25 34 38 41 28 -20 6 -18 8 14 -7 -20 -20 -20 -20 -20 -20 -18 -20 -20 -19 8 14 21 24 -2 -17 -20 -20 -20 -20 -15 -20 -20 -20 -20 -20 -20 -20 -20 -20
14 13 -3 34 34 39 37 20 -14 16 11 -18 -13 -12 -20 -20 -20 -20 -19 -8 -20 -20 -20 -4 8 7 7 8 6 14 -20 -20 -20 -20 -20 5 -18 -20 -20 -20 -20 -20 -20 -20
19 15 -17 33 33 39 36 10 14 -13 12 -20 -20 -6 -17 -20 -12 5 -20 -19 9 -20 -12 -5 -11 0 21 13 18 -9 -20 -20 -20 17 -13 -20 -20 -20 -20 -20 -20 -20 -20 -20
13 19 3 30 37 38 35 12 -19 -8 15 -20 -18 -19 11 -14 -20 11 -20 -20 5 -18 14 -20 -20 -20 12 12 15 1 -19 -19 -20 -18 -20 -20 -19 -4 5 -20 -20 -20 -20 -20
12 22 10 19 36 35 33 24 -20 14 -0 -19 4 27 25 -10 -10 -3 -20 -20 8 23 15 18 -14 -20 -12 -20 -2 30 -1 -13 -20 -20 -7 -20 -20 2 -3 -20 -20 -20 -20 -20
9 13 18 15 36 31 32 29 15 -7 -19 -2 -7 -20 20 14 5 18 -20 14 7 24 20 14 -20 -20 -20 -13 -20 -16 13 6 -15 3 21 13 -20 9 5 -20 -20 -20 -20 -20
11 18 20 4 36 27 31 28 15 2 20 23 -7 -19 -5 -17 -20 -17 -4 -17 -20 -20 18 18 -4 -6 1 -20 -20 -20 10 8 25 10 -20 -20 -20 -19 -20 -20 -20 -20 -20 -20
12 26 16 -1 26 30 30 24 10 25 27 24 -3 -20 -20 -20 -20 13 24 11 -20 -20 -20 -16 -20 -17 -20 -20 -20 -18 -20 -20 -20 -16 -20 -20 -20 -19 -18 -20 -20 -20 -20 -20
0 14 -14 14 33 35 30 14 6 17 6 6 9 -20 2 -20 -17 -9 -8 24 -3 9 6 12 8 -19 -20 -20 -20 -20 -20 -20 -20 -20 -20 -16 10 -11 3 -20 -20 -20 -20 -20
20 -13 15 24 35 28 27 20 13 -2 -20 2 -20 -20 -20 -20 -20 -8 -13 8 17 17 23 18 10 -20 -20 -20 -20 -20 -20 -20 -20 -20 -19 -17 -2 -0 4 -19 -20 -20 -20 -20
-4 -1 18 39 35 33 25 35 31 9 13 2 -8 2 -20 -20 -20 14 11 6 12 20 -19 19 -20 -20 -20 -20 -20 -20 -20 -20 -20 -20 -20 -20 -20 -20 -20 -20 -5 -20 -20 -20
8 22 38 29 17 10 16 20 4 -17 -9 -0 -20 -16 24 -20 -20 -16 -14 -10 -17 25 17 17 -15 -20 -20 -2 -20 -20 -20 -20 -20 -20 -20 -20 -20 -20 -20 -20 -20 -20 -20 -20
27 31 21 10 22 34 23 -10 -20 -20 -12 -9 -13 -7 10 -3 5 -15 -20 -16 20 26 23 24 17 21 4 -5 -20 -20 -20 -20 -20 -20 -20 -20 -20 -20 -20 -20 -20 -20 -20 -20
28 30 32 32 28 6 20 -18 -20 -1 12 -15 -14 9 21 38 25 10 18 25 25 20 15 20 23 19 10 -6 -20 -20 -20 -20 -20 -20 -20 -20 -20 -20 -20 -20 -20 -20 -20 -20
20 22 31 33 28 5 -5 -8 20 13 20 20 4 20 32 26 36 25 -20 25 19 -9 -20 11 17 13 -20 -20 -20 -20 -20 -20 -20 -20 -20 -20 -20 -20 -20 -20 -20 -20 -20 -20
11 6 7 6 21 13 8 28 17 21 12 4 10 17 18 28 39 31 2 21 34 12 18 18 -4 -6 10 -20 -20 -20 -20 -20 -20 -20 -20 -20 -20 -20 -20 -20 -20 -20 -20 -11
-2 3 8 18 16 30 6 -2 10 2 -6 10 11 22 14 22 13 29 41 18 13 -2 -19 -13 -10 -2 -20 -20 -20 -20 -20 -20 -20 -20 -20 -20 -20 -20 -16 12 -1 9 -12 4
18 -20 11 20 9 -18 6 17 3 18 1 16 11 13 25 16 34 31 21 34 22 -19 17 -17 -1 2 -4 -20 -20 -20 -20 -20 -20 -20 -20 -20 -20 -8 18 12 -2 -20 -17 4
0 16 8 13 -20 6 8 21 11 6 9 12 11 31 36 38 29 39 29 19 31 24 7 3 1 -2 -5 -20 -20 -20 -20 -20 -19 -6 -19 -11 -10 0 11 14 13 -3 -18 -10
4 4 -4 -2 -2 -1 9 3 4 13 12 12 16 31 36 37 20 17 25 23 19 13 2 5 14 9 3 2 0 8 9 6 0 13 15 12 10 6 -4 -9 -4 -11 -14 -15
8 -20 3 -20 6 12 3 7 12 6 7 8 17 32 35 4 21 19 21 18 9 4 9 17 14 12 15 17 18 21 21 16 7 4 1 -4 -16 -20 -14 -13 -18 -16 -9 -3
-14 5 -1 -4 5 5 -2 -11 -19 -1 15 20 21 4 23 17 -3 20 18 8 11 9 10 8 7 7 8 8 4 7 9 7 4 -4 -11 -16 -5 -16 -19 -18 -2 -10 -15 -20

GFSNW_prec_radar_081.txt.gz
Reflectivity
-5 -3 9 12 13 15 26 35 31 18 -19 22 10 -19 -20 -20 -20 -20 -20 -20 -20 -20 -8 11 12 17 -11 -20 -20 -20 -20 -8 -15 -16 -20 -8 -4 -20 -20 -20 -20 -20 -20 -20
11 8 12 15 14 23 36 38 26 20 -9 5 6 -15 -4 -3 -20 -20 -20 -20 -20 -19 -20 10 -5 4 1 -3 -20 -20 -20 2 16 -16 -20 -18 0 -20 -20 -20 -20 -20 -20 -18
14 12 10 10 18 33 36 33 18 24 17 10 -3 3 -20 -10 -20 -20 -20 -20 -20 -16 -15 12 -9 7 19 -6 6 -20 -20 -17 -14 -20 -20 -14 5 -20 -20 -20 -20 -20 -20 -20
10 10 13 12 25 32 38 38 19 -5 10 25 -17 -8 -20 -20 -20 -20 -20 -20 -20 -20 -11 -20 -16 25 31 -8 -5 6 -20 -20 -20 -20 -12 6 -2 -20 -20 -20 -20 -20 -20 -4
10 10 9 13 19 33 37 30 17 11 -20 -1 13 -17 9 -20 -20 -20 -20 -20 -20 -20 -18 -20 -17 -20 34 26 11 -20 -20 -20 -20 -20 1 10 17 -4 -15 -20 -20 -20 -20 -20
13 10 12 14 24 33 39 33 14 5 -2 7 3 5 -20 -1 -20 -20 -20 -20 -20 -20 -20 -20 -20 7 33 35 29 -12 -20 -20 -20 -20 -3 7 5 10 -20 -20 -12 -20 -20 -20
4 -12 -13 21 22 29 37 30 12 19 10 9 -9 -17 -20 -20 -20 -20 -20 -20 -20 -20 -20 -20 -20 -15 22 -5 -2 7 -9 6 -20 -20 6 11 -6 -20 -20 1 -20 -9 -9 -20
3 -15 -15 -2 11 19 29 34 25 15 11 3 2 3 -0 -20 -20 -20 -20 -20 -20 -20 -20 -7 -1 -11 36 22 -20 -18 -16 26 -10 35 7 -9 -20 -5 -19 -18 -20 -18 -20 -20
10 9 12 -17 -9 -10 21 23 36 15 5 -15 16 5 -20 -20 -20 -20 -20 -20 -20 -20 -20 -20 -3 11 37 22 -10 -20 2 13 -1 9 -8 -9 -10 15 -8 -20 -20 -20 -20 -20
-1 5 0 14 13 16 18 7 22 36 32 -13 -18 29 14 -20 -20 -20 -20 -20 -20 -20 -20 -9 12 4 10 30 -16 -20 -18 6 -11 9 -18 -16 -20 18 10 -8 -20 7 -7 -20
17 14 4 12 10 15 21 4 14 31 36 13 -20 10 -11 -20 4 -16 -20 -20 -20 -20 -20 0 2 10 -14 -1 -0 -6 -20 10 0 -20 2 -10 0 12 9 -20 -5 8 -11 -20
19 21 26 17 11 15 24 14 14 11 40 15 -8 -2 14 4 -20 -20 -20 -20 -20 -20 13 16 22 11 -20 -20 -20 -20 -20 -16 -12 -7 -20 -20 -4 15 7 -9 -18 -10 -20 -20
-17 11 18 31 25 21 26 13 21 17 40 27 17 -2 1 -20 -20 -14 -2 -20 -20 16 -18 -14 18 -16 -20 -20 -20 -20 -20 -0 15 -4 -19 -19 -14 11 -15 7 -20 -0 -20 -20
14 13 13 30 31 25 24 22 18 18 38 33 5 5 11 -13 24 18 23 -20 -20 -20 -12 35 25 -5 -20 -20 -20 -20 -20 -15 -20 -9 -11 -15 4 -1 -11 14 -13 -13 -8 -20
16 15 23 30 30 26 29 23 9 18 29 26 -10 2 15 21 26 -8 11 -20 5 20 -20 -2 15 -18 9 -20 -20 -20 -20 -20 -20 -20 -10 -8 -11 -13 -20 2 15 15 15 12
9 15 17 26 34 31 36 31 18 1 27 17 12 -0 15 23 9 -19 -20 -18 -5 -19 -20 -19 3 -20 24 -19 -20 -20 -20 -20 -20 -17 -12 1 -20 -20 -20 -12 6 -13 -20 -20
12 16 23 34 35 33 27 28 30 30 33 8 9 6 19 7 -20 -20 -20 -20 -20 -20 -20 -20 -16 8 24 10 -20 -20 -20 -20 -20 -20 -20 -20 -20 -15 -20 -20 -20 -20 -20 -20
21 30 29 29 30 31 25 4 9 26 15 0 0 -20 2 -20 -20 -20 -20 -20 -20 -20 -19 5 -5 -20 -17 8 -20 -20 -20 -20 -9 -20 -20 -20 -20 -20 -20 -20 -20 -20 -20 -20
34 36 39 35 35 35 31 27 31 26 32 13 -18 -20 -20 -20 -20 -17 14 -20 -20 -20 -9 -1 -3 41 33 8 -20 -20 -20 -17 -20 -20 -20 -20 -20 -20 -20 -20 -20 -20 -20 -20
31 22 25 37 28 20 13 16 18 -8 -20 -20 -20 -20 -20 -20 -20 -13 -20 -10 -9 -19 2 3 7 34 21 19 21 -20 -20 -20 -20 -20 -20 -20 -20 -20 -20 -20 -20 -20 -20 -20
18 17 30 35 28 11 7 16 15 22 -20 -20 -20 -20 -20 -20 -20 -18 20 13 -16 -20 -8 -9 33 22 14 20 2 3 -20 -20 -20 -20 -20 -20 -20 -20 -20 -20 -20 -20 -20 -20
-20 9 22 13 8 7 -18 -7 -16 -20 -20 -20 -20 -20 -20 -20 -20 2 -5 19 21 -18 -18 13 5 18 -14 -18 -20 -20 11 20 17 -20 -0 -20 -18 -20 -20 -20 -20 -20 -20 -20
-5 -20 -20 -16 -20 -20 -20 -18 -20 -19 -2 -19 -19 -3 -20 -16 -20 -20 -20 15 23 8 21 15 -12 12 18 -10 -20 -13 -5 -14 -20 -20 -20 -20 -20 -20 -20 -20 -20 -20 -20 -4
-20 -20 -20 -19 -19 -7 -0 4 -18 -8 -20 -20 -20 -20 -12 17 13 9 8 14 -20 -20 -20 -20 -20 -20 -18 3 8 -20 -20 -20 -4 -13 -20 -20 -20 -20 -20 -19 -13 3 8 12
-20 -20 -19 -13 14 16 -6 -6 5 2 6 -10 5 -1 17 17 12 1 15 -14 -4 -18 2 -14 -16 -17 -19 -19 -9 1 -20 -20 -20 -20 -20 -18 -20 -19 0 13 12 11 16 16
-20 -20 -19 -12 -13 -20 -1 1 -20 -20 -20 17 31 24 22 19 20 18 -3 11 4 -13 -19 -19 -20 -6 7 8 6 1 -13 -14 -15 -11 2 14 15 15 20 21 20 18 14 9
-20 -11 -20 -20 -20 -19 -16 2 -3 -6 4 15 19 18 20 26 7 -18 -20 -15 -11 -14 -14 -0 0 0 4 7 7 1 -7 0 11 17 17 18 19 21 21 17 11 5 6 5

GFSNW_prec_radar_087.txt.gz
Reflectivity
9 -20 -18 -18 13 -20 -20 17 15 12 -20 16 5 4 -20 -20 -20 -20 -20 -20 -20 -20 -20 -20 -20 -20 -20 -20 -20 -20 -20 -20 -20 -20 -20 -20 -20 -20 -18 -20 -20 -20 -20 -20
6 -2 -14 -13 15 -20 -12 20 13 23 13 10 5 -1 -18 -16 -20 -20 -20 -20 -20 -20 -20 -20 -20 -20 -20 -19 -2 -12 17 -15 -20 -20 -20 -20 -20 -20 6 -20 -20 -20 -20 -20
-3 6 -2 -5 -13 -20 23 19 16 13 24 3 3 -6 -5 10 -1 -20 -20 -20 -20 -20 -20 -20 -20 -20 -20 -20 -17 8 6 24 -17 -20 -20 -20 -20 -18 -2 -18 -20 -20 -20 -20
10 1 -16 0 -1 -14 28 22 17 7 7 21 10 -1 -20 -7 9 -11 3 -20 -20 -20 -20 -20 -20 -20 -20 -20 -11 5 14 33 -20 -20 -20 -20 -20 -9 -6 -19 -20 -20 -20 -20
-13 -20 -20 -20 14 19 23 31 22 17 -5 -16 7 17 -2 2 3 -5 1 -20 -17 -20 0 -20 -20 -20 -20 -7 6 18 24 32 -20 -20 -20 -20 -12 -19 -3 -8 -20 -20 -20 -20
-8 -13 1 14 21 29 38 34 30 13 18 -2 9 -1 -9 3 10 -9 -20 -3 -3 -20 -20 -20 -20 -20 -20 -19 -19 30 33 35 30 -20 -20 -17 17 -7 -20 -20 -20 -20 -20 -20
13 15 25 27 27 28 31 30 25 29 10 11 -13 -20 -20 -15 -20 -12 -12 -20 -12 -14 -20 8 -18 -20 -20 -20 -20 14 27 37 36 19 -13 -7 -20 -20 -20 -20 -20 -20 -20 -20
18 21 27 29 28 26 30 28 24 20 9 -8 -13 -20 -20 -20 -20 -20 -9 -20 -15 -20 -19 7 -14 -20 -16 -20 -15 -9 15 17 16 19 -1 -17 -20 -20 -20 -20 -20 -20 -20 -20
14 15 26 29 28 28 29 29 28 24 18 -6 -7 3 -20 -17 -20 -20 -20 9 -5 -20 -6 -1 15 -4 -16 9 13 -16 14 -15 21 11 21 -20 -20 -20 -18 9 25 -16 -8 -18
15 16 18 19 26 28 31 31 30 30 32 10 -9 6 -20 -20 -20 -20 -2 5 -19 -20 -18 -13 -7 -3 -17 6 7 9 -1 24 15 15 26 6 -20 -20 -20 5 -20 -9 12 12
3 -20 -19 -19 18 20 32 33 24 26 26 26 -10 -20 3 -14 3 -9 -5 8 -10 -20 -20 -20 -20 -13 -20 -20 -9 14 9 18 3 20 10 -15 -20 -17 -20 -20 20 9 -13 -10
-20 -20 -19 -20 20 16 31 33 26 30 33 24 -15 -20 -20 -20 -20 3 7 -11 1 -20 -20 -20 -20 -20 -19 -20 -20 7 -20 -20 24 10 15 -20 -20 -20 -20 14 -16 1 10 -18
3 7 4 12 5 -20 1 28 14 28 35 28 23 -18 -20 -20 -20 -20 -4 -20 -3 10 -20 -1 -12 -20 -20 -20 -20 -20 -20 -19 2 5 4 -20 -20 -20 -5 18 8 -3 13 20
15 22 21 12 13 -3 6 20 22 4 8 2 -20 -20 -20 -20 -20 -20 -19 -20 13 7 6 -5 -14 -5 -20 -20 -20 12 13 -6 -7 -19 -20 -20 -20 -19 -19 -11 9 2 -18 10
13 5 23 25 26 26 24 23 30 10 -15 -20 -20 -20 -20 -20 -20 -20 5 6 16 14 6 25 12 -20 -1 -20 -20 -20 -13 -20 -19 -19 6 -12 -20 -17 21 24 13 18 24 27
26 22 16 18 26 27 36 40 30 15 2 -20 -16 -20 -20 -20 -20 -20 -19 -17 10 8 13 3 -7 -20 23 -20 -20 -20 -20 -20 -20 -20 -3 -20 -20 -20 2 30 23 -15 8 -12
19 19 15 21 33 35 32 14 2 24 -19 16 1 15 -20 -18 8 -16 14 -1 18 12 26 18 -20 -20 12 -15 -20 -20 6 -20 -20 -20 -20 -20 -20 -20 -13 -6 24 21 -11 -18
4 22 35 33 36 29 12 25 -15 1 2 20 -2 25 11 -14 29 30 10 1 21 38 33 34 -17 -20 -20 -20 -20 -20 -3 -20 -20 -20 -20 -20 -20 -10 -20 -8 8 12 21 31
38 34 30 35 34 35 9 4 9 1 -6 -17 15 33 4 -2 30 18 16 3 29 22 -15 -20 -20 -20 -20 -20 -20 -20 -19 -20 -20 -20 -20 -20 -20 -14 19 7 6 11 1 -3
15 26 33 35 27 11 20 28 33 17 17 6 -14 34 4 -17 23 29 33 4 -8 -20 -20 -20 -20 -20 -20 -20 -20 -20 -20 -20 -20 -20 -20 -20 -20 -20 -4 8 -7 -20 -20 -15
27 24 21 17 8 4 16 19 -3 -1 -19 20 14 27 8 21 15 4 -20 -20 -20 -20 -20 -20 -17 -20 -20 -20 -20 -20 -20 -20 -20 -20 -20 -20 -20 -20 -20 -20 -20 -20 -20 -20
8 17 23 24 26 31 25 -2 25 -12 -14 -5 14 0 14 -10 -10 -20 -20 -20 -19 -20 -20 -13 -17 -20 -20 -20 -20 -20 -20 -20 -20 -20 -20 -20 -20 -20 -20 -20 -20 -20 -20 -20
-18 -19 7 34 23 14 10 -19 -18 -20 -20 -20 -20 -19 -20 -20 -20 -20 -20 -20 -20 -11 3 -20 -20 -20 -20 -20 -20 -20 -20 -20 -16 -20 -20 -20 -20 -20 -20 -20 -20 -20 -20 -20
-20 -20 -20 -20 -20 -20 -17 -1 -14 -12 -20 -20 -20 -20 -19 -1 -20 -19 -20 -20 -20 -15 3 -20 -20 -20 -20 -19 -19 -20 -12 -2 8 7 -2 -10 -20 -18 5 25 28 -19 5 19
-20 -20 -20 -20 -5 -14 0 -17 -19 -20 -20 -20 -20 -20 -20 -20 -20 -20 -20 -17 -18 -18 -20 -20 -20 -18 -12 -5 14 11 -11 11 1 20 32 24 29 33 21 -6 -12 -15 -13 -17
-20 -20 -20 -20 -7 -19 -19 -20 -20 -3 -9 -11 -20 -20 -20 -20 -20 -20 -20 -20 -20 3 -10 -12 -14 -8 3 15 12 2 5 13 19 27 28 20 21 13 5 5 -0 4 -4 6
-20 -20 -19 -19 -20 -19 -19 -19 -20 -18 -14 7 3 5 6 7 6 -0 -10 -18 -5 -20 -20 2 -9 -2 7 10 8 9 10 -3 5 10 10 1 -6 -6 -14 6 14 10 9 -5